Location: Unspecified
(0.0000°N, 0.0000°E)
Time: 22:07:31
(UTC+00:00)

GONETS M 11 (M21) - Visible Passes

Search period start: 06 June 2023 00:00
Search period end: 16 June 2023 00:00
Orbit: 1482 x 1506 km, 82.5° (Epoch: 06 June)

Date Brightness Start Highest point End Pass type
(mag) Time Alt. Az. Time Alt. Az. Time Alt. Az.
06 Jun ? 18:22:49 10° NNE 18:31:17 54° E 18:39:43 10° SSE visible
06 Jun ? 20:22:14 10° NW 20:27:41 18° W 20:33:10 10° SW visible
07 Jun ? 19:30:25 10° NNW 19:38:30 42° W 19:46:36 10° SSW visible
08 Jun ? 18:40:33 10° N 18:49:20 89° W 18:58:05 10° S visible
09 Jun ? 05:20:18 10° SE 05:26:29 21° E 05:32:39 10° NE visible
09 Jun ? 19:50:03 10° NW 19:56:33 23° W 20:03:04 10° SW visible
10 Jun ? 18:58:57 10° NNW 19:07:21 53° W 19:15:48 10° SSW visible
11 Jun ? 20:12:23 10° WNW 20:14:36 11° W 20:16:50 10° WSW visible
12 Jun ? 04:50:23 10° SE 04:55:21 16° E 05:00:18 10° ENE visible
12 Jun ? 19:18:09 10° NW 19:25:24 30° W 19:32:41 10° SSW visible
13 Jun ? 18:27:36 10° NNW 18:36:13 65° W 18:44:51 10° S visible
14 Jun ? 05:05:57 10° SSE 05:13:24 31° E 05:20:48 10° NE visible
14 Jun ? 19:38:51 10° WNW 19:43:27 15° W 19:48:04 10° SW visible
15 Jun ? 04:21:14 10° ESE 04:24:12 12° E 04:27:08 10° ENE visible
15 Jun ? 18:46:27 10° NNW 18:54:15 37° W 19:02:05 10° SSW visible
